Regional Weather Roundup
Issued by NWS Cleveland, OH

Home | Current Version | Previous Version | Text Only | Print | Product List | Glossary Off
Versions: 1 2 3 4 5 6 7 8 9 10 11 12 13 14 15 16 17 18 19 20 21 22 23 24 25 26 27 28 29 30 31 32 33 34 35 36 37 38 39 40 41 42 43 44 45 46 47 48 49 50

000
ASUS41 KCLE 251800
RWRCLE
OHIO REGIONAL WEATHER ROUNDUP
NATIONAL WEATHER SERVICE WILMINGTON, OH
200 PM EDT WED APR 25 2018

NOTE: "FAIR" INDICATES FEW OR NO CLOUDS BELOW 12,000 FEET WITH NO
SIGNIFICANT WEATHER AND/OR OBSTRUCTIONS TO VISIBILITY.

OHZ001>008-015>018-024>027-034-035-043-044-251900-
   NORTHWEST OHIO

CITY           SKY/WX    TMP DP  RH WIND       PRES   REMARKS
DEFIANCE       FAIR      59  45  59 N12       29.94F
FINDLAY        CLOUDY    56  46  69 N12       29.93S
TOLEDO EXPRESS PTSUNNY   60  45  57 NW12G18   29.92F
TOLEDO EXEC    PTSUNNY   58  45  62 NW8       29.93F
LIMA           CLOUDY    53  49  86 N12       29.94S
$$

OHZ009>014-019>023-028>033-038-089-251900-
   NORTHEAST OHIO

CITY           SKY/WX    TMP DP  RH WIND       PRES   REMARKS
CLE-HOPKINS    CLOUDY    45  43  93 N12       29.93S
CLE-LAKEFRONT  LGT RAIN  42  41  96 W3        29.91R
CUY CO. ARPT     N/A     45  43  93 NW12      29.91R FOG
LORAIN-ELYRIA  FOG       45  41  86 N12       29.92S VSB 1/4
ASHTABULA      CLOUDY    47  47 100 NW12      29.86S FOG
AKRON-CANTON   DRIZZLE   52  48  86 NW12      29.86F
WOOSTER        CLOUDY    50  48  93 NW18      29.89S FOG
MANSFIELD      CLOUDY    49  48  97 N16       29.90S FOG
YOUNGSTOWN     LGT RAIN  54  52  93 NW12      29.83S FOG
$$

OHZ042-051>053-060>062-070>072-077>081-251900-
  SOUTHWEST OHIO

CITY           SKY/WX    TMP DP  RH WIND       PRES   REMARKS
CINC-COVINGTON CLOUDY    60  49  66 NW13      29.94F
CINC-LUNKEN    CLOUDY    60  52  74 NW8       29.94F
HAMILTON       CLOUDY    62  51  67 NW10G16   29.95F
DAYTON         NOT AVBL
WRIGHT-PAT AFB NOT AVBL
DAYTON GENERAL CLOUDY    58  50  75 N12       29.93S
WILMINGTON     CLOUDY    57  52  83 NW13      29.92S
$$

OHZ036-037-039>041-045>050-054>059-063>069-073>076-082>088-251900-
  CENTRAL AND SOUTHEAST OHIO

CITY           SKY/WX    TMP DP  RH WIND       PRES   REMARKS
COLUMBUS       CLOUDY    56  49  77 N18       29.90S
OSU AIRPORT    CLOUDY    55  50  83 NW10      29.90S
BOLTON FIELD   CLOUDY    55  50  82 N18       29.91S
RICKENBACK AFB NOT AVBL
NEWARK         CLOUDY    56  50  80 NW12      29.88S
MARION         CLOUDY    54  48  80 N15       29.92S
LANCASTER      CLOUDY    56  51  84 N12       29.90S
ZANESVILLE     CLOUDY    57  50  77 NW12G20   29.86S
NEW PHILLY     CLOUDY    56  52  86 NW12      29.86S
$$




USA.gov is the U.S. government's official web portal to all federal, state and local government web resources and services.